Temperature
17 17 17 17 17 17 17 17 17 17 17 17 17 17 17 17 17 18 18 18 18 18 18 18 18 18 18 18 18 18 18 18 18 18 18 18 18 18 18 18 18 18 18
17 17 17 17 17 17 17 17 17 17 17 17 17 17 17 17 17 17 17 18 18 18 18 18 18 18 18 18 18 18 18 18 18 18 18 18 18 18 18 18 18 18 18
17 17 17 17 17 17 17 17 17 17 17 17 17 17 17 17 17 17 17 17 17 17 17 17 17 18 18 18 18 17 18 18 18 18 18 18 18 18 18 18 18 18 18
17 17 17 17 17 17 17 17 17 17 17 17 17 17 17 17 17 17 17 17 17 17 17 17 17 17 17 17 17 17 17 17 18 18 18 18 18 18 18 18 18 18 18
17 17 17 17 17 17 16 16 16 16 17 17 17 17 17 17 17 17 17 17 17 17 17 17 17 17 17 17 17 17 17 17 17 17 17 17 17 17 18 18 18 18 18
17 17 17 17 17 17 16 16 16 16 16 16 17 16 16 17 17 17 16 17 17 17 17 17 17 17 17 17 17 17 17 17 17 17 17 17 17 17 17 17 17 17 17
17 17 17 17 16 16 16 16 16 16 16 16 16 16 16 16 16 16 16 16 16 17 16 16 16 16 16 17 17 17 17 17 17 17 17 17 17 17 17 17 17 17 17
17 17 17 17 16 16 16 16 16 16 16 16 16 16 16 16 16 16 16 16 16 16 16 16 16 16 16 16 16 16 17 17 17 17 17 17 17 17 17 17 17 17 17
17 17 16 16 16 16 16 16 16 16 16 16 16 16 16 16 16 16 16 16 16 16 16 16 16 16 16 16 16 16 16 16 16 16 16 16 16 16 17 17 17 17 17
17 16 16 16 16 16 16 16 16 16 16 16 16 16 16 16 16 16 16 16 16 16 16 16 16 16 16 16 16 16 16 16 16 16 16 16 16 16 16 16 16 16 17
16 16 16 16 16 16 16 16 16 16 16 16 16 16 16 16 16 16 15 15 16 16 16 16 16 16 16 16 16 16 16 16 16 16 16 16 16 16 16 16 16 16 16
16 16 16 16 16 16 16 16 16 16 16 16 16 16 16 16 16 16 15 15 15 16 16 15 15 15 16 16 16 15 16 16 16 16 15 15 16 16 16 16 16 16 16
16 16 16 16 16 16 16 16 16 16 16 16 16 15 15 15 15 15 15 15 15 16 16 15 15 15 15 15 15 15 15 15 16 15 15 15 15 15 15 15 15 15 15
16 16 16 16 16 16 16 16 16 16 16 15 15 15 15 15 15 15 15 15 15 15 15 15 15 15 15 15 15 15 15 15 15 15 15 15 15 15 15 15 15 15 15
17 16 16 16 16 16 16 16 16 15 15 15 15 15 15 15 15 15 15 15 15 15 15 15 15 15 15 15 15 15 15 15 15 15 15 15 15 15 15 15 15 15 15
17 16 16 16 16 16 16 16 15 15 15 15 15 15 15 15 15 15 15 15 15 15 15 15 15 15 15 15 15 15 15 15 15 15 15 15 15 15 15 14 15 15 15
17 16 16 16 16 16 16 16 15 15 15 15 15 15 15 15 15 15 15 15 15 15 15 15 15 15 15 15 15 14 14 14 15 15 15 15 15 15 14 14 14 14 14
17 17 16 16 16 16 16 16 15 15 15 15 15 15 15 15 15 15 15 15 15 15 15 15 15 15 15 15 14 14 14 14 14 14 14 14 14 14 14 14 14 14 14
17 17 16 16 16 16 16 16 15 15 15 15 15 15 15 15 15 15 15 15 15 15 15 15 15 15 14 14 14 14 14 14 14 14 14 14 14 14 14 14 14 14 14
17 17 16 16 16 16 16 16 15 15 15 15 15 15 15 15 15 15 15 14 14 14 14 14 14 14 14 14 14 14 14 14 14 14 14 14 14 14 14 14 14 14 14
17 17 16 16 16 16 16 16 15 15 15 15 15 15 15 15 15 15 14 14 14 14 14 14 14 14 14 14 14 14 14 14 14 14 14 14 14 14 14 14 14 14 14
17 17 16 16 16 16 16 16 15 15 15 15 15 15 15 15 15 14 14 14 14 14 14 14 14 14 14 14 14 14 14 14 14 14 14 13 13 13 13 13 13 14 14
17 17 17 16 16 16 16 16 15 15 15 15 15 15 15 14 14 14 14 14 14 14 14 14 14 14 14 14 14 14 14 14 13 13 13 13 13 13 13 13 13 13 13
17 17 17 16 16 16 16 16 15 15 15 15 15 15 15 15 14 14 14 14 14 14 14 14 14 14 14 14 14 14 14 14 14 13 13 13 13 13 13 13 13 13 13
17 17 17 16 16 16 16 15 15 15 15 15 15 15 15 15 15 14 14 14 14 14 14 14 14 14 14 14 14 14 14 14 14 14 13 13 13 13 13 13 13 13 13
17 17 17 16 16 16 16 15 15 15 15 15 15 15 15 15 15 15 15 14 14 14 14 14 14 14 14 14 14 14 14 14 14 14 13 13 13 13 13 13 13 13 13
Wind_Speed
2 3 2 4 5 6 7 7 8 8 9 9 9 9 9 10 10 10 10 11 11 11 11 11 11 11 11 10 11 11 11 11 11 11 10 9 9 9 9 9 9 8 9
1 1 2 4 5 6 7 7 8 9 9 8 9 9 9 9 9 10 10 10 11 11 11 11 11 11 11 10 11 11 11 11 11 10 10 9 9 9 9 9 9 7 8
1 2 3 4 5 6 6 7 8 9 9 8 8 9 9 9 9 9 10 11 11 11 11 11 11 11 11 11 11 11 10 10 11 11 10 8 8 9 9 9 9 8 8
1 2 3 4 5 6 6 7 8 8 8 8 8 8 8 9 9 9 10 10 11 10 10 10 11 11 11 11 11 11 10 10 11 10 8 8 7 8 9 9 9 9 8
2 3 3 4 5 6 6 7 7 7 7 8 8 8 8 8 9 9 10 10 10 10 10 10 10 11 11 11 11 11 11 11 11 10 9 8 7 8 9 9 9 9 8
2 3 3 4 5 5 6 6 6 7 7 7 7 7 8 8 9 9 9 9 10 10 9 9 9 10 10 11 11 11 11 11 10 10 9 8 7 9 9 9 9 9 9
2 3 3 4 5 5 5 6 6 6 7 7 7 7 8 8 8 8 9 9 9 9 9 9 9 9 10 10 10 11 11 11 10 9 8 8 8 9 9 9 9 9 9
2 3 4 5 5 5 5 5 5 6 6 6 7 7 7 7 8 8 8 9 9 9 9 9 9 9 10 10 10 10 11 10 9 9 8 8 10 11 11 10 9 9 9
3 3 4 5 6 5 5 4 5 5 5 5 6 7 8 8 8 8 8 8 8 8 9 9 9 9 9 10 10 10 11 11 10 8 8 7 10 11 11 10 10 9 9
3 3 3 5 5 5 5 5 5 5 5 5 6 7 8 8 9 9 8 8 8 8 8 9 9 10 10 10 10 11 11 11 10 9 7 8 9 10 10 10 10 10 10
3 3 2 3 4 4 4 5 6 6 6 6 6 7 8 8 8 7 7 7 8 8 8 9 10 11 11 11 12 12 11 9 9 8 8 9 10 10 10 10 10 10 10
1 2 2 2 3 3 3 5 6 6 7 7 6 6 6 6 7 7 7 8 8 8 9 10 11 11 10 10 11 11 9 9 8 7 7 9 10 10 10 10 10 10 10
0 1 1 1 2 3 3 4 5 5 6 6 6 7 6 6 6 7 6 7 8 8 8 8 9 9 9 9 8 8 9 8 8 7 8 9 10 11 11 11 11 10 11
1 1 1 2 3 3 3 3 3 3 4 4 5 5 5 4 4 4 4 5 5 6 6 7 7 8 9 9 9 8 8 8 8 8 8 10 10 10 11 11 11 11 11
1 1 1 2 3 3 3 3 3 2 3 3 3 4 4 3 2 3 3 4 5 6 6 6 6 7 7 7 8 8 7 8 8 9 8 11 11 11 10 11 11 10 11
2 1 1 3 3 3 3 2 2 2 3 3 3 3 4 4 3 3 3 4 5 6 6 6 6 6 5 6 6 7 7 7 8 9 9 10 11 11 10 11 10 11 10
2 2 2 3 3 3 3 2 2 3 3 3 3 4 4 4 4 4 3 3 4 6 7 7 7 6 5 5 6 6 6 7 7 8 9 9 9 10 11 11 11 10 10
3 2 1 2 3 3 3 2 3 3 3 3 3 4 4 4 5 5 4 3 5 6 6 5 5 5 5 5 5 5 5 6 6 7 8 8 9 8 9 11 10 10 10
3 3 2 3 3 3 3 3 4 4 3 3 3 3 4 4 5 6 4 4 6 5 4 4 4 4 5 5 5 5 4 4 4 5 6 7 8 8 8 9 10 10 10
3 3 3 3 3 3 3 3 3 4 3 4 4 3 4 4 5 6 5 4 5 4 4 4 5 5 4 4 5 5 5 4 4 4 4 6 7 8 8 9 9 9 10
2 2 2 3 3 3 2 2 2 2 2 2 3 4 4 4 5 5 4 4 4 4 4 5 4 5 3 2 3 4 4 4 5 4 4 4 5 6 7 7 7 7 7
3 2 2 3 3 3 2 2 2 2 1 1 2 4 4 4 4 5 4 3 3 4 4 4 4 3 2 2 3 3 2 4 4 4 4 3 4 5 5 6 7 7 7
4 3 3 3 2 2 3 3 3 3 3 3 3 3 3 3 3 4 4 4 4 3 3 3 3 3 2 2 2 3 3 1 1 3 4 4 4 3 4 5 6 6 6
4 3 3 2 2 2 3 3 4 2 1 0 0 1 2 3 3 3 4 4 3 3 3 2 2 2 3 2 1 2 2 3 2 1 3 3 4 4 3 4 4 5 6
3 3 3 3 2 2 3 3 4 3 2 1 1 2 2 3 3 3 3 4 3 2 2 2 2 2 2 2 2 2 2 2 2 2 0 3 3 3 3 3 3 4 6
3 3 3 3 2 2 3 3 4 4 3 3 1 1 1 1 2 2 3 3 3 2 2 2 2 3 2 2 2 2 2 2 2 2 2 0 1 2 3 3 3 4 5
Wind_Direction
297 303 357 54 55 61 60 63 65 72 80 83 82 81 83 81 78 78 77 82 83 83 85 86 86 85 84 84 84 84 85 85 87 85 82 85 88 88 90 93 92 88 98
260 332 33 57 59 62 64 66 66 71 74 81 84 83 82 82 82 79 77 82 84 83 84 85 85 82 82 84 85 84 85 85 86 85 81 77 82 87 89 94 95 94 97
51 26 43 60 60 64 68 72 73 74 74 77 84 83 81 82 81 79 77 80 82 81 80 82 84 83 82 82 83 82 82 84 85 81 75 68 74 84 87 93 95 96 97
73 49 57 63 62 66 71 73 75 77 78 77 78 80 79 79 81 79 79 79 80 80 81 83 82 81 81 81 81 81 80 83 82 78 64 63 72 83 86 92 96 98 97
53 45 61 70 67 65 68 73 78 80 80 79 79 76 77 79 82 81 79 80 79 80 80 81 81 78 77 81 81 81 79 79 80 72 63 60 66 81 87 89 92 92 93
47 37 48 68 64 62 65 69 76 82 81 78 78 76 75 77 79 79 77 79 80 78 78 81 81 78 79 82 81 81 82 81 76 67 65 63 67 80 84 87 91 91 91
52 27 39 65 60 63 69 71 69 78 80 77 79 80 79 74 75 79 78 79 80 77 76 80 80 78 80 81 81 82 85 84 74 68 66 66 74 84 84 84 87 90 88
66 32 34 50 55 60 67 68 72 76 78 76 79 79 80 77 74 74 79 78 75 76 76 78 77 76 80 81 81 81 84 82 73 70 66 67 78 79 78 79 82 86 84
56 40 29 30 35 46 58 66 71 71 69 70 75 74 73 73 71 70 73 78 78 79 80 78 76 77 84 85 84 83 83 78 69 67 72 71 79 77 76 76 78 83 83
50 35 22 25 32 33 32 51 65 65 64 67 71 74 71 65 61 61 63 74 80 81 81 79 78 77 84 88 89 86 78 71 63 62 65 75 79 77 77 77 77 80 80
36 19 20 23 27 35 37 43 48 52 56 59 61 67 64 55 51 51 57 73 76 75 75 76 79 76 75 80 83 82 73 64 62 59 62 75 76 76 77 77 76 76 77
0 350 21 24 25 38 47 48 40 43 50 52 55 59 60 56 51 55 54 63 67 70 71 72 73 72 71 69 71 72 66 60 57 56 67 77 75 74 77 76 75 76 77
252 355 29 46 50 53 51 57 48 47 50 52 52 54 63 58 49 49 47 43 48 58 62 65 67 69 73 73 69 66 64 59 53 51 62 71 72 72 74 73 73 76 77
75 15 33 64 68 62 69 62 59 54 53 50 45 54 67 61 50 45 48 46 53 62 70 69 75 76 77 76 74 69 63 58 51 46 52 62 66 67 69 71 72 74 74
145 53 65 84 84 75 71 56 63 52 51 54 48 54 76 75 65 58 57 59 61 70 76 77 80 79 76 72 69 69 64 57 52 50 47 56 61 63 66 69 71 74 75
174 131 93 93 95 86 79 69 53 51 57 65 56 56 72 84 85 79 68 63 65 74 81 84 83 80 76 74 65 61 57 54 50 50 47 47 54 57 59 59 63 65 70
178 150 132 125 102 92 83 71 60 58 60 62 60 63 67 80 93 97 82 69 73 85 89 87 81 79 77 72 61 54 53 50 49 48 47 45 46 50 54 57 58 59 62
158 138 126 124 107 97 87 76 68 64 64 60 61 66 69 81 102 99 84 74 83 88 91 89 81 76 69 68 62 48 46 47 47 48 50 49 49 46 49 54 54 55 59
160 141 115 98 102 98 91 79 71 63 55 49 59 61 65 79 100 102 92 88 92 88 79 89 77 81 83 77 73 55 42 42 39 51 51 48 47 45 45 45 49 51 54
140 128 122 103 97 92 83 73 58 50 37 43 50 56 74 93 103 103 98 93 95 87 76 80 85 72 78 83 82 65 46 38 37 43 44 45 45 45 46 47 45 44 47
117 126 136 124 119 109 91 88 78 49 19 24 35 50 73 98 110 109 105 96 94 94 96 96 94 83 70 73 78 56 34 40 43 36 39 43 40 42 47 46 46 45 42
154 152 145 146 144 141 130 117 114 111 66 21 23 47 60 84 108 119 117 120 113 105 97 93 97 97 70 56 95 88 36 11 19 29 30 37 34 38 42 45 49 47 44
175 177 174 171 162 142 122 100 81 61 44 31 28 25 29 66 85 105 120 125 126 121 125 119 112 113 116 50 62 118 125 192 342 4 21 28 24 29 33 40 45 42 43
195 174 165 163 154 136 128 127 125 124 120 233 5 21 31 57 71 89 108 121 121 120 130 139 126 124 125 118 59 61 108 147 137 15 355 9 22 31 37 42 40 38 40
176 167 167 150 145 141 139 139 132 131 141 108 70 62 45 41 61 85 105 115 115 118 128 120 112 120 129 134 133 112 84 71 95 134 33 347 5 13 26 36 40 37 37
155 156 157 151 161 161 155 149 151 154 147 124 110 89 43 30 36 71 107 111 117 120 127 125 119 122 125 122 121 122 138 142 152 135 143 1 0 347 13 29 37 32 33
Height
1521 1520 1520 1519 1519 1518 1518 1517 1517 1517 1516 1516 1516 1516 1516 1516 1516 1516 1516 1516 1516 1516 1517 1517 1518 1518 1519 1520 1520 1521 1521 1522 1522 1523 1524 1524 1524 1525 1525 1526 1527 1527 1528
1522 1521 1521 1520 1520 1519 1519 1518 1518 1518 1517 1517 1517 1517 1517 1517 1517 1517 1517 1517 1517 1518 1518 1518 1519 1520 1520 1521 1522 1522 1523 1523 1524 1524 1525 1525 1526 1526 1527 1527 1528 1528 1529
1523 1522 1522 1521 1521 1520 1520 1519 1519 1519 1519 1519 1519 1519 1518 1518 1518 1519 1519 1519 1519 1519 1520 1520 1521 1521 1522 1522 1523 1523 1524 1525 1525 1525 1526 1526 1527 1528 1528 1528 1529 1529 1530
1524 1523 1523 1522 1522 1521 1521 1520 1520 1520 1520 1520 1520 1520 1520 1520 1520 1520 1520 1520 1520 1521 1521 1522 1522 1523 1523 1524 1524 1525 1525 1526 1526 1527 1527 1528 1528 1529 1529 1529 1530 1530 1531
1525 1525 1524 1523 1523 1522 1522 1522 1522 1522 1522 1521 1521 1522 1522 1522 1521 1521 1522 1522 1522 1522 1523 1523 1523 1524 1525 1525 1525 1526 1526 1527 1527 1528 1528 1529 1529 1530 1530 1530 1531 1531 1532
1526 1526 1525 1524 1524 1524 1523 1523 1523 1523 1523 1523 1523 1523 1523 1523 1523 1523 1523 1523 1523 1524 1524 1525 1525 1525 1526 1526 1527 1527 1528 1528 1529 1529 1529 1530 1530 1531 1531 1531 1532 1532 1533
1527 1527 1526 1526 1525 1525 1525 1525 1525 1525 1525 1525 1525 1525 1525 1525 1525 1524 1524 1524 1525 1525 1525 1526 1526 1527 1527 1528 1528 1528 1529 1529 1530 1530 1531 1531 1531 1532 1532 1532 1533 1533 1533
1528 1528 1528 1528 1527 1527 1527 1526 1526 1526 1526 1526 1526 1526 1526 1526 1526 1526 1526 1526 1526 1527 1527 1527 1528 1528 1529 1529 1530 1530 1530 1531 1531 1531 1532 1532 1533 1533 1533 1533 1533 1534 1534
1530 1530 1529 1529 1529 1529 1528 1528 1528 1528 1528 1528 1528 1528 1527 1527 1527 1527 1528 1528 1528 1528 1528 1529 1529 1529 1530 1530 1531 1531 1531 1532 1532 1532 1533 1533 1534 1534 1534 1534 1534 1534 1535
1531 1531 1531 1531 1530 1530 1530 1530 1530 1530 1529 1529 1529 1529 1529 1529 1529 1529 1529 1529 1529 1530 1530 1530 1530 1531 1531 1531 1532 1532 1532 1532 1533 1533 1534 1534 1535 1535 1535 1535 1535 1535 1535
1532 1532 1532 1532 1532 1532 1532 1531 1531 1531 1531 1531 1531 1531 1531 1531 1531 1531 1531 1531 1531 1531 1532 1532 1532 1532 1532 1533 1533 1533 1533 1533 1534 1535 1535 1535 1536 1535 1535 1535 1536 1536 1536
1533 1533 1534 1533 1533 1533 1533 1533 1533 1533 1533 1532 1532 1532 1533 1533 1533 1532 1533 1533 1533 1533 1533 1533 1533 1534 1534 1534 1534 1534 1535 1535 1535 1536 1536 1537 1537 1537 1537 1537 1536 1537 1537
1534 1534 1535 1535 1535 1535 1535 1534 1534 1534 1534 1534 1534 1534 1534 1534 1534 1534 1534 1535 1535 1535 1535 1535 1535 1535 1535 1536 1536 1536 1536 1536 1537 1537 1538 1538 1538 1538 1538 1538 1537 1538 1538
1535 1536 1536 1536 1536 1536 1536 1536 1536 1536 1536 1535 1535 1535 1536 1536 1536 1536 1536 1536 1536 1536 1536 1536 1537 1537 1537 1537 1537 1538 1538 1538 1539 1539 1539 1539 1539 1539 1539 1539 1539 1539 1539
1536 1537 1537 1537 1537 1537 1537 1537 1537 1537 1537 1537 1537 1537 1537 1537 1538 1538 1537 1538 1538 1538 1538 1538 1538 1538 1538 1539 1539 1540 1540 1540 1540 1540 1540 1541 1541 1541 1541 1541 1540 1540 1540
1537 1537 1538 1538 1538 1539 1539 1539 1539 1539 1538 1539 1539 1539 1539 1539 1539 1539 1539 1539 1539 1539 1539 1539 1540 1540 1540 1540 1541 1541 1541 1541 1541 1542 1542 1542 1542 1542 1542 1542 1542 1542 1541
1538 1538 1539 1539 1539 1540 1540 1540 1540 1540 1540 1540 1540 1540 1540 1540 1540 1540 1540 1540 1540 1540 1541 1541 1541 1541 1542 1542 1542 1542 1543 1543 1543 1543 1544 1543 1543 1543 1543 1543 1543 1543 1543
1538 1539 1539 1540 1540 1541 1541 1541 1541 1541 1541 1541 1541 1541 1541 1541 1541 1541 1541 1541 1541 1542 1542 1542 1543 1543 1543 1543 1543 1544 1544 1544 1545 1545 1545 1545 1545 1545 1545 1545 1544 1544 1544
1538 1539 1540 1541 1541 1541 1542 1542 1542 1542 1542 1542 1542 1542 1542 1542 1542 1542 1542 1542 1543 1543 1543 1544 1544 1544 1544 1544 1545 1545 1546 1546 1546 1547 1547 1546 1546 1546 1546 1546 1546 1545 1545
1539 1540 1541 1541 1542 1542 1542 1543 1543 1543 1543 1543 1543 1543 1543 1543 1543 1543 1544 1544 1544 1545 1545 1545 1546 1546 1546 1546 1546 1547 1548 1548 1548 1548 1548 1548 1548 1547 1547 1546 1546 1546 1546
1539 1540 1541 1541 1542 1542 1543 1544 1544 1544 1544 1544 1544 1544 1544 1544 1544 1544 1545 1545 1546 1546 1546 1547 1547 1547 1547 1548 1548 1548 1549 1549 1549 1549 1549 1549 1549 1548 1548 1547 1547 1547 1547
1539 1540 1541 1541 1542 1543 1544 1544 1545 1545 1545 1545 1545 1545 1545 1546 1546 1546 1546 1546 1547 1547 1548 1548 1548 1549 1549 1549 1550 1550 1550 1552 1550 1550 1550 1550 1549 1549 1549 1548 1548 1547 1547
1538 1539 1540 1541 1542 1543 1544 1545 1545 1546 1546 1546 1546 1546 1546 1547 1547 1547 1548 1548 1548 1548 1549 1549 1549 1550 1550 1551 1551 1551 1551 1551 1551 1551 1551 1550 1550 1549 1549 1549 1549 1548 1548
1538 1539 1540 1541 1542 1543 1544 1545 1545 1546 1546 1547 1547 1547 1547 1548 1548 1548 1549 1549 1549 1549 1550 1550 1550 1551 1551 1551 1551 1552 1552 1552 1551 1551 1552 1551 1550 1550 1549 1549 1549 1549 1549
1537 1539 1540 1541 1542 1543 1544 1545 1545 1546 1547 1547 1548 1548 1548 1548 1549 1549 1550 1550 1550 1550 1550 1551 1551 1551 1551 1552 1552 1552 1552 1552 1551 1551 1551 1551 1551 1550 1550 1550 1550 1550 1550
1536 1538 1539 1541 1542 1543 1543 1544 1545 1546 1546 1547 1548 1548 1549 1549 1549 1550 1550 1550 1551 1551 1551 1551 1551 1551 1552 1552 1552 1552 1552 1552 1551 1551 1551 1551 1551 1551 1551 1551 1551 1550 1550